Regional Weather Roundup
Issued by NWS

Home | Current Version | Previous Version | Text Only | Print | Product List | Glossary Off
Versions: 1 2 3 4 5 6 7 8 9 10 11 12 13 14 15 16 17 18 19 20 21 22 23 24 25 26 27 28 29 30 31 32 33 34 35 36 37 38 39 40 41 42 43 44 45 46 47 48 49 50

000
ASUS43 KMPX 230701
RWRMN
WEATHER ROUNDUP FOR MINNESOTA
NATIONAL WEATHER SERVICE TWIN CITIES/CHANHASSEN MN
100 AM CST MON JAN 23 2017


NOTE: "FAIR" INDICATES FEW OR NO CLOUDS BELOW 12,000 FEET WITH NO
SIGNIFICANT WEATHER AND/OR OBSTRUCTIONS TO VISIBILITY. N/A MEANS
CURRENT SKY AND/OR WEATHER CONDITIONS ARE NOT AVAILABLE.

MNZ060>063-068>070-230800-
   Twin Cities Metro

CITY           SKY/WX    TMP DP  RH WIND       PRES   REMARKS
TWIN CITIES    DRIZZLE   34  32  92 W5        29.79R FOG     WCI  30
ST PAUL        CLOUDY    34  34 100 W5        29.80R FOG     WCI  30
CRYSTAL        CLOUDY    33  30  88 W5        29.77S FOG     WCI  29
BLAINE         CLOUDY    36  36 100 W7        29.77S FOG
LAKEVILLE      CLOUDY    30  30 100 W9        29.78S FOG     WCI  22
EDEN PRAIRIE   CLOUDY    33  32  96 W3        29.77S FOG
SOUTH ST PAUL  CLOUDY    34  34 100 W3        29.79R FOG
LAKE ELMO      CLOUDY    34  34 100 W6        29.79R FOG     WCI  29
$$
MNZ001>005-007-008-013>017-022>024-027-028-230800-
   Northwest Minnesota

CITY           SKY/WX    TMP DP  RH WIND       PRES   REMARKS
BEMIDJI        LGT SNOW  31  31  99 W3        29.74F
HALLOCK        CLOUDY    32  30  93 CALM      29.74F
ROSEAU         DRIZZLE   34  28  80 SW3       29.73F
WARROAD        LGT SNOW  32  28  86 SW6       29.74S WCI  26
THIEF RVR FALL CLOUDY    31  29  92 SW6       29.76S WCI  25
CROOKSTON      CLOUDY    32  30  93 W8        29.78R WCI  25
FOSSTON        CLOUDY    28  28 100 SW6       29.76S FOG     WCI  22
DETROIT LAKES  CLOUDY    32  30  93 NW6       29.78S WCI  26
MOORHEAD       CLOUDY    32  28  86 W6        29.81R WCI  26
PARK RAPIDS    CLOUDY    32  28  85 W10       29.75S WCI  24
MAHNOMEN       CLOUDY    30  30  99 W6        29.76S FOG     WCI  24
$$
MNZ006-009>011-018-025>026-230800-
   North Central Minnesota

CITY           SKY/WX    TMP DP  RH WIND       PRES   REMARKS
BAUDETTE       FOG       33  32  96 CALM      29.72F VSB 1/2
FLAG ISLAND    LGT RAIN  32  32 100 CALM      29.72S VSB 3/4
INTL FALLS     FOG       34  33  96 W3        29.72S VSB 1
WASKISH        CLOUDY    32  32 100 W7        29.75S FOG     WCI  26
BIG FORK       LGT SNOW  34  34 100 CALM      29.73F
LONGVILLE      CLOUDY    34  32  93 CALM      29.74S FOG
GRAND RAPIDS   CLOUDY    34  33  96 W3        29.75S FOG
CRANE LAKE     FOG       30  30 100 CALM      29.74S VSB 1/4
ORR            FOG       32  30  93 CALM      29.70S VSB 1/2
COOK           MIX PCPN  32  32 100 CALM      29.73S VSB 3/4
WALKER         CLOUDY    32  31  98 NW6       29.74F FOG     WCI  26
$$
MNZ012-019>021-037-230800-
   Northeast Minnesota

CITY           SKY/WX    TMP DP  RH WIND       PRES   REMARKS
DULUTH         CLOUDY    35  34  96 NW6       29.71S WCI  30
ELY            FOG       32  32 100 CALM      29.71S VSB 1
HIBBING        CLOUDY    33  33 100 NW6       29.72S FOG     WCI  28
EVELETH        CLOUDY    34  33  98 W3        29.73S
DULUTH HARBOR  CLOUDY    36  34  93 W6        29.74F
TWO HARBORS    CLOUDY    37  34  87 CALM      29.70S
SILVER BAY     CLOUDY    34  34 100 CALM      29.69S
GRAND MARAIS     N/A     37  33  85 CALM      29.72S
G MARAIS ARPRT CLOUDY    30  28  93 CALM      29.68S
$$
MNZ029>031-032-039>041-046>048-054>057-064-230800-
   West Central Minnesota

CITY           SKY/WX    TMP DP  RH WIND       PRES   REMARKS
FERGUS FALLS   CLOUDY    30  30 100 W6        29.83F FOG     WCI  24
WHEATON        CLOUDY    37  37 100 W7        29.83S
MORRIS         CLOUDY    32  30  93 NW5       29.81R FOG     WCI  27
ALEXANDRIA     CLOUDY    30  29  96 NW8       29.79R WCI  22
ELBOW LAKE     CLOUDY    31  31 100 NW6       29.80S FOG     WCI  25
WADENA         CLOUDY    30  30 100 W5        29.76S FOG     WCI  25
GLENWOOD       CLOUDY    30  28  93 W10       29.79S WCI  21
APPLETON       CLOUDY    34  30  86 NW6       29.82S WCI  29
ORTONVILLE     CLOUDY    34  28  80 CALM      29.83R
MADISON        CLOUDY    36  36 100 NW5       29.83S
WILLMAR        CLOUDY    34  34 100 CALM      29.81F FOG
$$
MNZ033>034-036-042>043-049>051-058-059-230800-
   Central Minnesota

CITY           SKY/WX    TMP DP  RH WIND       PRES   REMARKS
ST CLOUD       CLOUDY    33  32  96 NW10      29.77S FOG     WCI  25
SAUK CENTRE    CLOUDY    31  31  98 W7        29.79R FOG     WCI  24
PAYNESVILLE    CLOUDY    32  32 100 W7        29.79S FOG     WCI  26
AITKIN         CLOUDY    36  34  93 W5        29.74S FOG
PINE RIVER     CLOUDY    32  32 100 CALM      29.79S FOG
BRAINERD       CLOUDY    32  32 100 W6        29.76S FOG     WCI  26
STAPLES        CLOUDY    30  30 100 W5        29.77R FOG     WCI  25
LONG PRAIRIE   CLOUDY    32  32 100 W3        29.78S FOG
LITTLE FALLS   CLOUDY    32  32 100 W6        29.78S FOG     WCI  26
LITCHFIELD     CLOUDY    34  34 100 W5        29.79F FOG     WCI  30
BUFFALO        CLOUDY    32  32  98 W5        29.79S FOG     WCI  28
MAPLE LAKE     CLOUDY    33  33 100 W6        29.78F FOG     WCI  28
HUTCHINSON     CLOUDY    33  33 100 W8        29.81R FOG     WCI  26
$$
MNZ037-044-045-052-053-230800-
   East Central Minnesota

CITY           SKY/WX    TMP DP  RH WIND       PRES   REMARKS
PRINCETON      CLOUDY    34  34 100 W5        29.77F FOG     WCI  30
MORA           CLOUDY    34  32  93 W5        29.77S FOG     WCI  30
CAMBRIDGE      CLOUDY    36  36 100 W7        29.75S FOG
RUSH CITY      FOG       34  32  93 W3        29.75F VSB 1
MOOSE LAKE     CLOUDY    34  34 100 CALM      29.72S
HINCKLEY       FOG       36  36 100 W3        29.75S VSB 1
CLOQUET        CLOUDY    36  34  93 W3        29.72F FOG
MCGREGOR       CLOUDY    34  34 100 CALM      29.75S
$$
MNZ071>073-080-081-089-090-097-098-230800-
   Southwest Minnesota

CITY           SKY/WX    TMP DP  RH WIND       PRES   REMARKS
MONTEVIDEO     CLOUDY    34  34 100 NW6       29.83S WCI  29
GRANITE FALLS  CLOUDY    34  32  92 W7        29.83F WCI  28
CANBY          CLOUDY    34  31  89 CALM      29.84S
MARSHALL       CLOUDY    32  29  88 W9        29.83S WCI  24
REDWOOD FALLS  CLOUDY    33  29  85 W7        29.81F WCI  27
OLIVIA         CLOUDY    32  32 100 W8        29.80F WCI  25
PIPESTONE      CLOUDY    32  28  86 NW7       29.82F WCI  26
WINDOM         CLOUDY    32  28  86 NW7       29.82S WCI  26
WORTHINGTON    CLOUDY    31  28  89 NW16      29.82F WCI  20
JACKSON        CLOUDY    30  28  93 NW13      29.82S WCI  20
TRACY          CLOUDY    33  30  88 NW9       29.82F WCI  26
SLAYTON        CLOUDY    31  28  89 NW13      29.83S WCI  21
$$
MNZ065>067-074>077-082>085-091>093-230800-
   South Central Minnesota

CITY           SKY/WX    TMP DP  RH WIND       PRES   REMARKS
MANKATO        PTCLDY    32  30  92 W7        29.82R FOG     WCI  26
NEW ULM        CLOUDY    34  30  86 W10       29.81S WCI  26
ST JAMES       CLOUDY    32  30  93 W9        29.83S WCI  24
FAIRMONT       CLOUDY    31  29  92 NW8       29.84R WCI  23
GLENCOE        CLOUDY    33  33 100 W7        29.79R FOG     WCI  27
OWATONNA       CLOUDY    32  30  93 W5        29.81R FOG     WCI  27
WASECA         CLOUDY    32  32 100 W8        29.82R FOG     WCI  25
ALBERT LEA     CLOUDY    32  32 100 NW3       29.81R FOG
$$
MNZ078>079-086>088-094>096-230800-
   Southeast Minnesota

CITY           SKY/WX    TMP DP  RH WIND       PRES   REMARKS
ROCHESTER      CLOUDY    32  32 100 NW9       29.79R WCI  24
RED WING       CLOUDY    34  32  93 W6        29.79R FOG     WCI  29
STANTON        CLOUDY    33  32  95 CALM      29.78R FOG
DODGE CENTER   CLOUDY    30  30 100 CALM      29.79R FOG
WINONA         CLOUDY    34  34 100 CALM      29.79S FOG
AUSTIN         CLOUDY    30  30 100 NW12      29.80R FOG     WCI  21
PRESTON        CLOUDY    32  32  99 NW10      29.78S FOG     WCI  24
$$
ABBREVIATIONS USED IN REMARKS
   TC - TEMPERATURES IN CELSIUS
  WCI - WIND CHILL INDEX
   HX - HEAT INDEX
  VSB - VISIBILITY
$$



USA.gov is the U.S. government's official web portal to all federal, state and local government web resources and services.